OPS 4682 DEB, 18270

Orbit data source: Space-Track

OPS 4682 DEB, 18270 is space debris in LEO originally from a launch on Sat, 03 Apr 1965 UTC launched from the Air Force Western Test Range (AFWTR). Debris objects in space refer to the collection of defunct objects orbiting the Earth. Examples of debris include non-operational satellites, rocket bodies, and fragments generated from explosions, collisions, or faulty payload assembly.

Loading next visibility...
Identifier
18270, 1965-027Z
Orbit
LEO
Country
Flag of USUS
Related business
Manufacturer
Unknown
Mission
Spacecraft
Bus & Motor
Unknown
Mass
Unknown
Launch date (UTC)
1965-04-03 (61 years ago)
Launch vehicle
Unknown
Launch site
Air Force Western Test Range (AFWTR)
Object type
Payload
Rocket body
Debris
Shape & HBR
Unknown shape, 0.1 m
Radar Cross Section
Medium (>0.1 m² and <1 m²)

Expand to show TLE details & history
Last TLE update: 15 hours ago

TLE from 15 hours ago
0 OPS 4682 DEB
1 18270U 65027Z   26219.65270115 -.00000216  00000-0 -77290-3 0  9994
2 18270  90.2352   0.7304 0027067 325.6590  49.2448 12.97198837923265
Epoch: 2026-08-07T15:39Z
TLE epoch observation values (Epoch: 2026-08-07T15:39:53.379Z)
Latitude
15.11417°
Longitude
169.51946°
Altitude
1,261.781 km
Speed
7.232 km/s
True Right ascension
00h 02m 40s
True Declination
15° 02' 01"
Sunlit
Object was in full shadow at epoch
Visualization orbit readout
Latitude
Unknown
Longitude
Unknown
Altitude
Unknown
Speed
Unknown
Apparent Right ascension
Unknown
Apparent Declination
Unknown
Sunlit
N/A
Visualization observer readout
Local Sidereal Time
20:54:59
Azimuth
Unknown
Elevation
Unknown
Doppler factor
Unknown
Orbital elements
Apogee altitude
1,290.914 km
Perigee altitude
1,249.511 km
Semi-major axis
7,648.35 km
Eccentricity
0.00271
Inclination
90.2352°
RAAN
0.7304°
Arg. of periapsis
325.659°
True anomaly
49.48027°
Mean anomaly
49.2448°
Eccentric anomaly
49.36248°
Mean motion
3.24483 °/min
Orbital period
110.95 mins
BSTAR
-0.0007729
Loading maneuver chart data...
Computing Atmospheric mass density...
Loading historical data...
Loading historical data...
Loading historical data...
Loading historical data...
Loading historical data...
Loading historical data...
Loading historical data...

Documentation

Showing up to 5 results
|